Station FTGM4 - 9014098 - Fort Gratiot, MI Image indicating link to RSS feed of recent meteorological observations for station FTGM4


Conditions at FTGM4 as of
(6:18 am EDT)
1018 GMT on 09/02/2026:
     

Click on the graph icon in the table below to see a time series plot of the last five days of that observation.

5-day plot - Wind Direction Wind Direction (WDIR):WSW ( 240 deg true )
5-day plot - Wind Speed Wind Speed (WSPD): 5.1 kts
5-day plot - Wind Gust Wind Gust (GST): 8.0 kts
5-day plot - Atmospheric Pressure Atmospheric Pressure (PRES):29.92 in
5-day plot - Wind Speed at 10 Meters Wind Speed at 10 meters (WSPD10M): 5.8 kts
5-day plot - Wind Speed at 20 Meters Wind Speed at 20 meters (WSPD20M): 5.8 kts
5-day plot -  Wind Speed, Wind Gust and Atmospheric Pressure Combined plot of Wind Speed, Gust, and Air Pressure
NOS Water Level Observation Network Water Level
Previous observations
TIME
(EDT)
5-day plot - Wind Direction
WDIR
 
5-day plot - Wind Speed
WSPD
kts
5-day plot - Wind Gust
GST
kts
5-day plot - Wave Height
WVHT
ft
5-day plot - Dominant Wave Period
DPD
sec
5-day plot - Average Wave Period
APD
sec
5-day plot - Mean Wave Direction
MWD
 
5-day plot - Atmospheric Pressure
PRES
in
5-day plot - Pressure Tendency
PTDY
in
5-day plot - Air Temperature
ATMP
°F
5-day plot - Water Temperature
WTMP
°F
5-day plot - Dew Point
DEWP
°F
5-day plot - Salinity
SAL
psu
5-day plot - Visibility
VIS
nmi
5-day plot - Tide (above MLLW)
TIDE
ft
2026-09-02 06:12 am SW 5.1 8.9----29.91-------
2026-09-02 06:06 am SW 6.0 8.9----29.91-------
2026-09-02 06:00 am SW 5.1 7.0----29.91-0.01 75.0- 71.4---
2026-09-02 05:54 am SW 6.0 8.0----29.91- 75.0- 71.4---
2026-09-02 05:48 am SW 7.0 9.9----29.91- 75.0- 71.4---
2026-09-02 05:42 amSSW 6.0 8.9----29.91- 75.4- 71.6---
2026-09-02 05:36 am SW 5.1 7.0----29.92- 75.0- 71.6---
2026-09-02 05:30 am SW 5.1 7.0----29.92- 75.0- 71.6---
2026-09-02 05:24 am SW 5.1 7.0----29.92- 74.8- 71.6---
2026-09-02 05:18 am SW 5.1 6.0----29.92-------
2026-09-02 05:12 am SW 4.1 6.0----29.92-------
2026-09-02 05:06 am SW 5.1 6.0----29.92-------
2026-09-02 05:00 am SW 6.0 7.0----29.92-0.01 75.2- 71.6---
2026-09-02 04:54 am SW 6.0 8.9----29.93- 75.4- 71.6---
2026-09-02 04:48 am SW 7.0 8.0----29.93- 75.4- 71.6---
2026-09-02 04:42 am SW 6.0 8.0----29.93- 75.6- 72.0---
2026-09-02 04:36 am SW 8.0 8.9----29.93- 75.6- 71.8---
2026-09-02 04:30 am SW 6.0 8.0----29.92- 75.2- 71.8---
2026-09-02 04:24 am SW 5.1 6.0----29.92- 75.0- 71.8---
2026-09-02 04:18 am SW 5.1 8.0----29.92- 75.0- 71.8---
2026-09-02 04:12 am SW 6.0 8.0----29.92- 75.2- 71.8---
2026-09-02 04:06 am SW 7.0 8.9----29.92- 75.4- 72.0---
2026-09-02 04:00 am SW 7.0 8.0----29.91- 75.4- 72.0---
2026-09-02 03:54 amSSW 6.0 8.9----29.91- 75.6- 72.1---
2026-09-02 03:48 amSSW 5.1 7.0----29.92-------
2026-09-02 03:42 amSSW 2.9 6.0----29.92-------
2026-09-02 03:36 am SW 7.0 8.9----29.93-------
2026-09-02 03:30 amWSW 5.1 8.0----29.92- 77.4- 71.6---
2026-09-02 03:24 am SW 6.0 7.0----29.91- 77.5- 71.4---
2026-09-02 03:18 amSSW 7.0 8.9----29.91-------
2026-09-02 03:12 am SW 6.0 8.0----29.92-------
2026-09-02 03:06 am SW 5.1 7.0----29.92-------
2026-09-02 03:00 am SW 5.1 7.0----29.92-0.01 77.7- 71.6---
2026-09-02 02:54 am SW 5.1 7.0----29.92- 77.7- 71.6---
2026-09-02 02:48 am SW 6.0 7.0----29.92- 77.9- 71.8---
2026-09-02 02:42 am SW 7.0 8.0----29.92- 77.9- 72.0---
2026-09-02 02:36 am SW 5.1 7.0----29.92- 77.9- 72.0---
2026-09-02 02:30 am SW 5.1 7.0----29.93- 77.9- 72.1---
2026-09-02 02:24 am SW 5.1 8.0----29.93- 77.9- 72.1---
2026-09-02 02:18 am SW 5.1 8.0----29.93-------
2026-09-02 02:12 am SW 7.0 8.0----29.93-------
2026-09-02 02:06 am SW 6.0 8.0----29.93-------
2026-09-02 02:00 am SW 6.0 8.0----29.94+0.01 77.7- 72.7---
2026-09-02 01:54 am SW 6.0 7.0----29.94- 77.4- 72.5---
2026-09-02 01:48 am SW 5.1 6.0----29.94- 77.5- 72.7---
2026-09-02 01:42 am SW 5.1 6.0----29.94- 77.5- 72.7---
2026-09-02 01:36 am SW 4.1 6.0----29.94- 77.7- 72.9---
2026-09-02 01:30 am SW 5.1 7.0----29.94- 77.5- 72.9---
2026-09-02 01:24 am SW 5.1 8.0----29.94- 77.5- 72.9---
2026-09-02 01:18 amWSW 5.1 7.0----29.94-------
2026-09-02 01:12 am SW 5.1 8.9----29.94-------
2026-09-02 01:06 am SW 5.1 7.0----29.94-------
2026-09-02 01:00 am SW 5.1 8.0------ 77.2- 72.9---
2026-09-02 12:54 amWSW 6.0 7.0------ 77.2- 73.0---
2026-09-02 12:48 am SW 5.1 7.0----29.94- 77.4- 73.0---
2026-09-02 12:42 am SW 5.1 7.0----29.94- 77.0- 72.9---
2026-09-02 12:36 amWSW 5.1 6.0----29.94- 77.2- 73.0---
2026-09-02 12:30 amWSW 5.1 8.0----29.94- 77.4- 73.2---
2026-09-02 12:24 amWSW 5.1 8.0----29.94- 77.4- 73.2---
2026-09-02 12:18 amWSW 5.1 7.0----29.94-------
2026-09-02 12:12 amWSW 6.0 7.0----29.93-------
2026-09-02 12:06 amWSW 6.0 9.9----29.93-------
2026-09-02 12:00 am SW 5.1 8.0----29.93+0.02 77.2- 73.4---
2026-09-01 11:54 pm SW 5.1 7.0----29.93- 77.2- 73.2---
2026-09-01 11:48 pm SW 5.1 6.0----29.93-------
2026-09-01 11:42 pm SW 5.1 7.0----29.93-------
2026-09-01 11:36 pm SW 4.1 6.0----29.93-------
2026-09-01 11:30 pm SW 4.1 5.1----29.93- 77.0- 73.0---
2026-09-01 11:24 pm SW 5.1 5.1----29.93- 76.5- 72.5---
2026-09-01 11:18 pm SW 4.1 5.1----29.93-------
2026-09-01 11:12 pm SW 5.1 5.1----29.93-------
2026-09-01 11:06 pm SW 4.1 4.1----29.93-------
2026-09-01 11:00 pm SW 4.1 7.0----29.93+0.01 77.2- 73.2---
2026-09-01 10:54 pm SW 5.1 5.1----29.93- 76.6- 72.5---
2026-09-01 10:48 pmWSW 4.1 4.1----29.93- 76.5- 72.5---
2026-09-01 10:42 pmWSW 4.1 5.1----29.93- 76.6- 72.7---
2026-09-01 10:36 pm SW 2.9 4.1----29.93- 76.3- 72.3---
2026-09-01 10:30 pm SW 4.1 4.1----29.93- 76.1- 72.3---
2026-09-01 10:24 pm SW 4.1 4.1----29.93- 76.3- 72.3---
2026-09-01 10:18 pm SW 2.9 4.1----29.93-------
2026-09-01 10:12 pm SW 2.9 4.1----29.93-------
2026-09-01 10:06 pm SW 2.9 2.9----29.93-------
2026-09-01 10:00 pmWSW 2.9 4.1----29.93+0.01 75.2- 72.0---
2026-09-01 09:54 pm W 1.9 2.9----29.93- 75.2- 72.0---
2026-09-01 09:48 pm W 1.9 1.9----29.93- 75.0- 71.8---
2026-09-01 09:42 pm W 1.9 2.9----29.93- 75.2- 72.1---
2026-09-01 09:36 pm W 1.9 2.9----29.93- 74.7- 71.6---
2026-09-01 09:30 pm W 1.0 1.9----29.92- 74.1- 71.1---
2026-09-01 09:24 pmWNW 1.0 1.9----29.92- 74.3- 71.2---
2026-09-01 09:18 pm- 0.0 2.9----29.92- 73.9- 71.1---
2026-09-01 09:12 pmNNW 1.9 2.9----29.92- 73.8- 70.5---
2026-09-01 09:06 pm NW 1.0 1.0----29.92- 73.8- 70.9---
2026-09-01 09:00 pm- 0.0 1.0----29.91+0.00------
2026-09-01 08:54 pmWNW 1.9 1.9----29.91-------
2026-09-01 08:48 pm- 0.0 1.0----29.91- 73.6- 70.0---
2026-09-01 08:42 pm SW 1.0 1.9----29.91- 74.1- 70.3---
2026-09-01 08:36 pm- 0.0 0.0----29.91- 75.6- 72.0---
2026-09-01 08:30 pm- 0.0 1.9----29.91- 75.7- 71.8---
2026-09-01 08:24 pmWNW 1.9 2.9----29.91- 75.2- 70.9---
2026-09-01 08:18 pm W 1.0 1.9----29.91-------
2026-09-01 08:12 pmSSE 1.9 2.9----29.91-------
2026-09-01 08:06 pm- 0.0 1.9----29.91-------
2026-09-01 08:00 pm N 1.0 1.9----29.91-0.01 76.8- 72.0---
2026-09-01 07:54 pmNNE 1.9 2.9----29.91- 76.8- 72.0---
2026-09-01 07:48 pmNNE 1.9 2.9----29.91-------
2026-09-01 07:42 pmNNE 1.9 2.9----29.91-------
2026-09-01 07:36 pm N 2.9 2.9----29.91-------
2026-09-01 07:30 pm NE 2.9 4.1----29.91- 76.6- 72.3---
2026-09-01 07:24 pmNNE 4.1 5.1----29.91- 76.1- 72.1---
2026-09-01 07:18 pmNNE 5.1 5.1----29.91-------
2026-09-01 07:12 pmNNE 5.1 5.1----29.92-------
2026-09-01 07:06 pmNNE 5.1 5.1----29.92-------
2026-09-01 07:00 pmNNE 5.1 6.0----29.92-0.01 74.3- 70.7---
2026-09-01 06:54 pmNNE 5.1 5.1----29.92- 73.9- 70.0---
2026-09-01 06:48 pmNNE 5.1 5.1----29.92- 74.3- 69.6---
2026-09-01 06:42 pmNNE 4.1 4.1----29.92- 75.9- 70.7---
2026-09-01 06:36 pmNNE 2.9 5.1----29.92- 76.8- 71.6---
2026-09-01 06:30 pmNNE 4.1 5.1----29.92- 76.3- 70.2---
2026-09-01 06:24 pm NE 1.9 2.9----29.92- 77.4- 71.2---
2026-09-01 06:18 pmNNE 2.9 2.9----29.92-------
2026-09-01 06:12 pmNNE 1.9 1.9----29.92-------
2026-09-01 06:06 pmNNE 1.0 2.9----29.92-------
2026-09-01 06:00 pm NE 1.9 2.9----29.91-0.02 78.3- 71.8---
2026-09-01 05:54 pm NE 2.9 5.1----29.91- 77.9- 72.0---
2026-09-01 05:48 pm NE 4.1 4.1----29.91- 76.6- 70.9---
2026-09-01 05:42 pm NE 4.1 5.1----29.91- 76.6- 70.9---
2026-09-01 05:36 pm NE 4.1 6.0----29.91- 77.0- 71.2---
2026-09-01 05:30 pmNNE 5.1 7.0----29.92- 76.8- 71.1---
2026-09-01 05:24 pmNNE 7.0 8.0----29.92- 76.5- 70.7---
2026-09-01 05:18 pmNNE 6.0 8.0----29.92-------
2026-09-01 05:12 pmNNE 7.0 8.0----29.92-------
2026-09-01 05:06 pmNNE 7.0 8.0----29.92-------
2026-09-01 05:00 pmNNE 7.0 9.9----29.92-0.01 76.1- 70.9---
2026-09-01 04:54 pmNNE 7.0 8.9----29.92- 75.6- 70.3---
2026-09-01 04:48 pm NE 6.0 8.9----29.92- 75.6- 70.2---
2026-09-01 04:42 pmNNE 5.1 8.9----29.92- 75.9- 70.9---
2026-09-01 04:36 pm NE 7.0 8.9----29.92- 75.7- 70.7---
2026-09-01 04:30 pm NE 8.9 11.1----29.92- 75.2- 70.2---
2026-09-01 04:24 pm NE 8.0 8.9----29.92- 74.8- 69.6---
2026-09-01 04:18 pm NE 8.0 8.9----29.92-------
2026-09-01 04:12 pmNNE 6.0 7.0----29.93-------
2026-09-01 04:06 pm NE 6.0 7.0----29.92-------
2026-09-01 04:00 pm NE 5.1 7.0----29.93+0.00 75.9- 71.6---
2026-09-01 03:54 pmENE 8.0 8.9----29.93- 74.5- 70.5---
2026-09-01 03:48 pmENE 8.0 8.9----29.93- 74.1- 70.2---
2026-09-01 03:42 pmENE 8.0 8.9----29.93- 74.3- 70.5---
2026-09-01 03:36 pm NE 8.0 9.9----29.93- 74.8- 71.1---
2026-09-01 03:30 pmENE 8.0 8.9----29.93- 74.5- 70.7---
2026-09-01 03:24 pmENE 8.9 11.1----29.93-------
2026-09-01 03:18 pmENE 8.0 11.1----29.93-------
2026-09-01 03:12 pmENE 9.9 12.0----29.93-------
2026-09-01 03:06 pmENE 11.1 13.0----29.93-------
2026-09-01 03:00 pmENE 12.0 13.0----29.93-0.01------
2026-09-01 02:54 pmENE 13.0 14.0----29.93-------
2026-09-01 02:48 pmENE 14.0 14.0----29.93-------
2026-09-01 02:42 pmENE 13.0 14.0----29.93-------
2026-09-01 02:36 pm E 12.0 13.0----29.93-------
2026-09-01 02:30 pm E 12.0 13.0----29.93-------
2026-09-01 02:24 pmENE 11.1 12.0----29.93-------
2026-09-01 02:18 pmENE 11.1 13.0----29.93-------
2026-09-01 02:12 pmENE 12.0 13.0----29.93-------
2026-09-01 02:06 pmENE 12.0 12.0----29.93-------
2026-09-01 02:00 pmENE 11.1 12.0----29.93-0.01------
2026-09-01 01:54 pmENE 8.9 9.9----29.93-------
2026-09-01 01:48 pmENE 7.0 8.9----29.93-------
2026-09-01 01:42 pmENE 7.0 8.9----29.93-------
2026-09-01 01:36 pmENE 8.0 9.9----29.93-------
2026-09-01 01:30 pm W 1.0 6.0----29.93- 87.1- 72.7---
2026-09-01 01:24 pmWNW 1.0 6.0----29.93- 87.8- 73.4---
2026-09-01 01:18 pm W 2.9 7.0----29.93-------
2026-09-01 01:12 pm W 4.1 7.0----29.93-------
2026-09-01 01:06 pm SW 2.9 8.0----29.93-------
2026-09-01 01:00 pmWSW 6.0 9.9----29.93-0.01 85.8- 73.6---
2026-09-01 12:54 pm SW 7.0 9.9----29.93- 85.6- 73.6---
2026-09-01 12:48 pmWSW 8.0 11.1----29.93-------
2026-09-01 12:42 pmWSW 5.1 8.0----29.93-------
2026-09-01 12:36 pmWSW 6.0 11.1----29.94-------
2026-09-01 12:30 pm W 2.9 6.0----29.94- 86.0- 73.9---
2026-09-01 12:24 pmWSW 5.1 9.9----29.94- 84.7- 73.0---
2026-09-01 12:18 pm SW 7.0 8.9----29.94-------
2026-09-01 12:12 pm W 5.1 7.0----29.94-------
2026-09-01 12:06 pmWSW 4.1 8.0----29.95-------
2026-09-01 12:00 pm W 5.1 7.0----29.95+0.00 83.7- 72.9---
2026-09-01 11:54 amWSW 6.0 7.0----29.95- 84.0- 73.4---
2026-09-01 11:48 amWSW 7.0 8.9----29.95- 83.5- 72.9---
2026-09-01 11:42 am SW 5.1 7.0----29.95- 84.4- 73.4---
2026-09-01 11:36 amWSW 6.0 8.0----29.95- 84.2- 73.0---
2026-09-01 11:30 am W 4.1 6.0----29.95- 83.7- 73.8---
2026-09-01 11:24 amWSW 4.1 7.0----29.95- 82.8- 72.1---
2026-09-01 11:18 am W 4.1 8.0----29.95-------
2026-09-01 11:12 amWSW 5.1 7.0----29.95-------
2026-09-01 11:06 amWSW 6.0 8.0----29.95-------
2026-09-01 11:00 am W 2.9 7.0----29.94+0.00 83.1- 72.7---
2026-09-01 10:54 am W 4.1 6.0----29.95- 82.9- 72.5---
2026-09-01 10:48 amWSW 2.9 6.0----29.95-------
2026-09-01 10:42 am W 5.1 7.0----29.95-------
2026-09-01 10:36 am W 6.0 8.0----29.95-------
2026-09-01 10:30 amWSW 4.1 8.0----29.95- 81.1- 72.5---
2026-09-01 10:24 amWSW 2.9 7.0----29.95- 80.4- 72.1---
2026-09-01 10:18 am SW 6.0 8.0----29.94-------
2026-09-01 10:12 amWSW 5.1 6.0----29.94-------
2026-09-01 10:06 amWSW 4.1 5.1----29.94-------
2026-09-01 10:00 amWSW 2.9 6.0----29.94+0.01 80.1- 72.3---
2026-09-01 09:54 am W 5.1 6.0----29.94- 78.8- 71.1---
2026-09-01 09:48 am W 5.1 6.0----29.94- 79.0- 71.8---
2026-09-01 09:42 amWNW 2.9 5.1----29.94- 78.6- 71.8---
2026-09-01 09:36 am W 5.1 7.0----29.94- 77.5- 70.7---
2026-09-01 09:30 am W 5.1 7.0----29.94- 77.7- 71.4---
2026-09-01 09:24 am W 5.1 8.0----29.94- 77.2- 71.2---
2026-09-01 09:18 amWSW 2.9 5.1----29.94-------
2026-09-01 09:12 amWSW 4.1 6.0----29.95-------
2026-09-01 09:06 amWSW 5.1 7.0----29.95-------
2026-09-01 09:00 amWSW 5.1 8.0----29.95+0.03 75.0- 70.3---
2026-09-01 08:54 amWSW 6.0 8.0----29.95- 74.8- 70.7---
2026-09-01 08:48 amWSW 6.0 8.0----29.95-------
2026-09-01 08:42 am SW 4.1 6.0----29.95-------
2026-09-01 08:36 amWSW 5.1 7.0----29.95-------
2026-09-01 08:30 amWSW 5.1 6.0----29.95- 73.4- 70.0---
2026-09-01 08:24 amWSW 5.1 7.0----29.95- 73.0- 69.6---
2026-09-01 08:18 amWSW 4.1 7.0----29.95-------
2026-09-01 08:12 amWSW 5.1 6.0----29.94-------
2026-09-01 08:06 am SW 4.1 7.0----29.94-------
2026-09-01 08:00 amWSW 5.1 7.0----29.94+0.02 72.5- 69.8---
2026-09-01 07:54 amWSW 5.1 7.0----29.94- 72.3- 69.8---
2026-09-01 07:48 amWSW 6.0 7.0----29.94- 71.8- 69.4---
2026-09-01 07:42 amWSW 5.1 7.0----29.94- 71.6- 69.3---
2026-09-01 07:36 amWSW 5.1 7.0----29.94- 71.2- 69.1---
2026-09-01 07:30 am SW 6.0 7.0----29.94- 71.1- 68.7---
2026-09-01 07:24 am SW 5.1 7.0----29.94- 70.9- 68.5---
2026-09-01 07:18 amWSW 5.1 6.0----29.93-------
2026-09-01 07:12 amWSW 6.0 7.0----29.93-------
2026-09-01 07:06 amWSW 5.1 8.0----29.93-------
2026-09-01 07:00 am SW 6.0 7.0----29.93+0.02 70.7- 68.2---
2026-09-01 06:54 amWSW 6.0 8.0----29.93- 70.5- 68.2---
2026-09-01 06:48 amWSW 5.1 7.0----29.93- 70.5- 68.0---
2026-09-01 06:42 amWSW 5.1 7.0----29.93- 70.5- 68.0---
2026-09-01 06:36 amWSW 5.1 7.0----29.93- 70.7- 68.2---
2026-09-01 06:30 amWSW 5.1 7.0----29.93- 70.7- 68.2---
2026-09-01 06:24 am SW 4.1 6.0----29.93- 70.9- 68.4---
2026-09-01 06:18 amWSW 5.1 8.0----29.93-------
2026-09-01 06:12 amWSW 7.0 8.9----29.92-------
2026-09-01 06:06 amWSW 7.0 9.9----29.92-------
2026-09-01 06:00 amWSW 7.0 8.9----29.92- 70.9- 68.2---
2026-09-01 05:54 amWSW 7.0 8.9----29.92- 70.9- 68.0---